Temp
-12 -12 -12 -12 -12 -12 -12 -12 -11 -11 -12 -12 -12 -12 -12 -12 -12 -12 -12 -12 -11 -11 -12 -11 -11 -12 -12 -12 -12 -12 -12 -12 -12 -12 -12 -12 -13 -13 -12 -12 -12 -12 -12 -12 -12 -12 -12 -12 -12 -12 -12 -12 -12 -12 -12 -12 -13 -13 -13 -13 -12 -12
-12 -12 -12 -12 -12 -12 -12 -12 -11 -11 -12 -12 -12 -12 -12 -12 -12 -12 -12 -12 -11 -12 -12 -12 -12 -12 -12 -12 -12 -12 -12 -12 -12 -12 -12 -12 -12 -13 -13 -13 -12 -12 -13 -12 -12 -12 -12 -12 -12 -12 -12 -12 -12 -12 -12 -12 -12 -13 -13 -13 -13 -12
-12 -12 -12 -12 -12 -12 -12 -12 -12 -12 -12 -12 -12 -12 -12 -12 -12 -12 -12 -12 -12 -11 -12 -12 -12 -12 -12 -12 -12 -12 -12 -12 -12 -12 -12 -12 -12 -13 -13 -13 -13 -13 -13 -13 -12 -12 -12 -12 -12 -12 -12 -12 -12 -12 -12 -12 -12 -13 -13 -13 -13 -13
-12 -12 -12 -13 -13 -12 -12 -12 -12 -12 -12 -12 -12 -12 -12 -12 -12 -12 -12 -12 -12 -12 -12 -11 -12 -12 -12 -12 -12 -12 -12 -12 -12 -12 -12 -12 -12 -12 -13 -13 -13 -13 -13 -13 -13 -13 -12 -12 -12 -12 -12 -12 -12 -12 -12 -12 -12 -12 -13 -13 -13 -13
-12 -12 -12 -13 -13 -13 -12 -12 -12 -12 -12 -12 -12 -12 -12 -12 -12 -12 -12 -12 -12 -12 -12 -12 -12 -12 -12 -12 -12 -12 -12 -12 -12 -12 -12 -12 -12 -12 -13 -13 -13 -13 -13 -13 -13 -13 -13 -12 -12 -12 -13 -12 -12 -12 -12 -12 -12 -12 -12 -13 -13 -13
-12 -12 -13 -13 -13 -13 -13 -13 -12 -12 -12 -12 -12 -12 -12 -12 -12 -12 -12 -12 -12 -12 -12 -12 -12 -12 -12 -13 -13 -13 -13 -13 -12 -12 -12 -12 -12 -12 -13 -13 -13 -13 -13 -13 -13 -13 -13 -13 -13 -13 -13 -12 -12 -12 -12 -12 -12 -12 -12 -13 -13 -13
-12 -13 -13 -13 -13 -13 -13 -13 -13 -13 -13 -12 -12 -12 -12 -12 -12 -12 -12 -12 -12 -12 -12 -12 -13 -13 -13 -13 -13 -13 -13 -13 -13 -12 -12 -12 -12 -13 -13 -13 -13 -13 -13 -13 -13 -13 -13 -13 -13 -13 -13 -13 -12 -12 -12 -12 -12 -12 -12 -13 -13 -13
-13 -13 -13 -13 -13 -13 -13 -13 -13 -13 -13 -13 -13 -12 -12 -12 -12 -12 -12 -12 -12 -13 -13 -13 -13 -13 -13 -13 -13 -13 -13 -13 -13 -13 -12 -12 -13 -13 -13 -13 -13 -13 -13 -13 -13 -13 -13 -13 -13 -13 -13 -13 -13 -12 -12 -12 -13 -12 -12 -13 -13 -13
-13 -13 -13 -13 -13 -13 -13 -13 -13 -13 -13 -13 -13 -12 -12 -12 -12 -12 -12 -12 -13 -13 -13 -13 -13 -13 -13 -13 -13 -13 -13 -13 -13 -13 -12 -12 -13 -13 -13 -13 -13 -13 -13 -13 -13 -13 -13 -13 -13 -13 -13 -13 -13 -12 -12 -13 -13 -13 -13 -13 -13 -13
-13 -13 -13 -13 -13 -13 -13 -13 -13 -13 -13 -13 -13 -13 -13 -12 -12 -12 -12 -12 -13 -13 -13 -13 -13 -13 -13 -13 -13 -13 -13 -13 -13 -13 -13 -13 -13 -13 -13 -13 -13 -13 -13 -13 -13 -13 -13 -13 -13 -13 -13 -13 -13 -13 -12 -13 -13 -13 -13 -13 -13 -13
-13 -13 -13 -13 -13 -13 -13 -13 -13 -13 -13 -13 -13 -13 -13 -13 -13 -13 -13 -13 -13 -13 -13 -13 -13 -13 -13 -13 -13 -13 -13 -13 -13 -13 -13 -13 -13 -13 -13 -13 -13 -13 -13 -13 -13 -13 -13 -13 -13 -13 -13 -13 -13 -13 -13 -13 -13 -13 -13 -13 -13 -13
-13 -13 -13 -13 -13 -13 -13 -13 -13 -13 -13 -13 -13 -13 -13 -13 -13 -13 -13 -13 -13 -13 -13 -13 -13 -13 -13 -13 -13 -13 -13 -13 -13 -13 -13 -13 -13 -13 -13 -13 -13 -13 -13 -13 -13 -13 -13 -13 -13 -13 -13 -13 -13 -13 -13 -13 -13 -13 -13 -13 -13 -13
-14 -14 -13 -13 -13 -13 -13 -13 -13 -13 -13 -13 -13 -13 -13 -13 -13 -13 -13 -13 -13 -13 -13 -13 -13 -13 -13 -13 -13 -13 -13 -13 -13 -13 -13 -13 -13 -13 -13 -13 -13 -13 -13 -13 -13 -13 -13 -14 -14 -14 -13 -13 -13 -13 -13 -13 -12 -13 -13 -13 -13 -12
-14 -14 -13 -13 -13 -13 -13 -13 -13 -13 -13 -13 -13 -13 -13 -13 -13 -13 -13 -13 -13 -13 -13 -13 -13 -13 -13 -13 -13 -13 -13 -13 -13 -13 -13 -13 -13 -13 -13 -13 -13 -13 -13 -13 -13 -13 -13 -14 -14 -14 -14 -14 -13 -13 -13 -13 -12 -12 -12 -13 -12 -12
-14 -14 -14 -13 -13 -13 -13 -13 -13 -13 -13 -13 -13 -13 -13 -13 -13 -13 -13 -13 -13 -13 -13 -13 -13 -13 -13 -13 -13 -13 -13 -13 -13 -13 -13 -13 -13 -13 -13 -13 -13 -13 -13 -13 -13 -13 -13 -13 -14 -13 -13 -14 -14 -13 -13 -13 -13 -12 -13 -13 -12 -12
-14 -14 -14 -14 -13 -13 -13 -13 -13 -13 -13 -13 -13 -13 -13 -13 -13 -13 -13 -13 -13 -13 -13 -13 -13 -13 -13 -13 -13 -13 -13 -13 -13 -13 -13 -13 -13 -13 -13 -13 -13 -13 -13 -13 -13 -13 -13 -13 -13 -13 -14 -13 -14 -14 -13 -13 -13 -13 -13 -12 -12 -12
-14 -14 -14 -14 -14 -13 -13 -13 -13 -13 -14 -13 -13 -13 -13 -13 -13 -13 -13 -13 -13 -13 -13 -13 -13 -13 -13 -13 -13 -13 -13 -13 -13 -13 -13 -13 -13 -13 -13 -13 -13 -13 -13 -13 -13 -13 -13 -13 -13 -13 -13 -13 -13 -14 -14 -13 -13 -13 -13 -12 -12 -12
-14 -14 -14 -14 -14 -14 -14 -14 -13 -13 -13 -13 -13 -13 -13 -13 -13 -13 -13 -13 -13 -13 -13 -13 -13 -13 -13 -13 -13 -13 -13 -13 -13 -13 -13 -13 -13 -13 -13 -13 -13 -13 -13 -13 -13 -13 -13 -13 -13 -13 -13 -13 -13 -14 -14 -14 -13 -13 -13 -13 -12 -12
-14 -14 -14 -14 -14 -14 -14 -14 -14 -13 -13 -13 -13 -13 -13 -13 -13 -13 -13 -13 -13 -13 -13 -13 -13 -13 -13 -13 -13 -13 -13 -13 -13 -13 -13 -13 -13 -13 -13 -13 -13 -13 -13 -13 -13 -13 -13 -13 -13 -13 -13 -13 -13 -13 -13 -13 -13 -13 -13 -13 -13 -12
-14 -14 -14 -14 -14 -14 -14 -14 -14 -14 -14 -13 -13 -13 -13 -13 -13 -13 -13 -13 -13 -13 -13 -13 -13 -13 -13 -13 -13 -13 -13 -13 -13 -13 -13 -13 -13 -13 -13 -13 -13 -13 -13 -13 -13 -13 -13 -13 -13 -13 -13 -13 -13 -13 -13 -13 -13 -13 -13 -13 -13 -13
-14 -14 -14 -14 -14 -14 -14 -14 -14 -14 -14 -14 -13 -13 -13 -13 -13 -13 -13 -13 -13 -13 -13 -13 -13 -13 -13 -13 -13 -13 -13 -13 -13 -13 -13 -13 -13 -13 -13 -13 -13 -13 -13 -13 -13 -14 -14 -13 -13 -13 -13 -13 -13 -13 -13 -13 -13 -13 -13 -13 -13 -13
-14 -14 -14 -14 -14 -14 -14 -14 -14 -14 -14 -14 -14 -14 -13 -13 -13 -13 -13 -13 -13 -13 -13 -13 -13 -13 -13 -13 -13 -13 -13 -13 -13 -13 -13 -13 -13 -13 -13 -13 -13 -13 -13 -13 -13 -14 -14 -13 -13 -13 -13 -13 -13 -13 -13 -13 -13 -13 -13 -13 -13 -13
-15 -14 -14 -14 -14 -14 -14 -14 -14 -14 -14 -14 -14 -14 -14 -14 -13 -13 -13 -13 -13 -13 -13 -13 -13 -13 -13 -13 -13 -13 -13 -13 -13 -13 -13 -13 -13 -13 -13 -13 -13 -13 -13 -13 -13 -13 -14 -13 -13 -13 -13 -13 -13 -13 -13 -13 -13 -13 -13 -13 -13 -13
-15 -15 -14 -14 -14 -14 -14 -14 -14 -14 -14 -14 -14 -14 -14 -14 -14 -14 -13 -13 -13 -13 -13 -13 -13 -13 -13 -13 -13 -13 -13 -13 -13 -13 -13 -13 -13 -13 -13 -13 -13 -13 -13 -13 -13 -13 -13 -13 -14 -13 -13 -13 -13 -13 -13 -13 -13 -13 -13 -13 -13 -13
-15 -15 -14 -14 -14 -14 -14 -14 -14 -14 -14 -14 -14 -14 -14 -14 -14 -14 -14 -13 -13 -13 -13 -13 -13 -13 -13 -13 -13 -13 -13 -13 -13 -13 -13 -13 -13 -13 -13 -13 -13 -13 -13 -13 -13 -13 -13 -13 -13 -14 -14 -13 -13 -13 -13 -13 -13 -13 -13 -13 -13 -13
-15 -15 -14 -14 -14 -14 -14 -14 -14 -14 -14 -14 -14 -14 -14 -14 -14 -14 -14 -14 -14 -14 -13 -13 -13 -13 -13 -13 -13 -13 -13 -13 -13 -13 -13 -13 -13 -13 -13 -13 -13 -13 -13 -13 -14 -14 -14 -14 -13 -14 -14 -14 -14 -13 -13 -13 -13 -13 -13 -13 -14 -13
-15 -15 -15 -14 -14 -14 -14 -14 -14 -14 -14 -14 -14 -14 -14 -14 -14 -14 -14 -14 -14 -14 -14 -14 -14 -14 -14 -14 -13 -13 -13 -13 -13 -13 -13 -13 -13 -13 -13 -13 -13 -13 -13 -13 -13 -14 -14 -14 -14 -14 -14 -14 -14 -14 -13 -13 -13 -14 -13 -13 -14 -13
-15 -15 -15 -15 -15 -15 -15 -15 -14 -14 -14 -14 -14 -14 -14 -14 -14 -14 -14 -14 -14 -14 -14 -14 -14 -14 -14 -14 -14 -14 -14 -14 -13 -13 -13 -13 -13 -13 -13 -13 -13 -13 -13 -13 -13 -14 -14 -14 -14 -14 -14 -14 -14 -14 -14 -14 -14 -14 -14 -14 -14 -14
-15 -15 -15 -15 -15 -15 -15 -15 -15 -15 -15 -14 -14 -14 -14 -14 -14 -14 -14 -14 -14 -14 -14 -14 -14 -14 -14 -14 -14 -14 -14 -14 -14 -14 -14 -13 -13 -13 -13 -13 -13 -13 -13 -13 -13 -13 -14 -14 -14 -14 -14 -14 -14 -14 -14 -14 -14 -14 -14 -14 -14 -14
-16 -16 -16 -16 -16 -16 -15 -15 -15 -15 -15 -15 -15 -15 -15 -15 -15 -15 -15 -15 -14 -14 -14 -14 -14 -14 -14 -14 -14 -14 -14 -14 -14 -14 -14 -14 -14 -14 -14 -14 -14 -14 -13 -13 -13 -13 -13 -14 -14 -14 -14 -14 -14 -14 -14 -14 -14 -14 -14 -14 -14 -14
-16 -16 -16 -16 -16 -16 -16 -16 -15 -15 -15 -15 -15 -15 -15 -15 -15 -15 -15 -15 -15 -15 -15 -15 -15 -15 -15 -14 -14 -14 -14 -14 -14 -14 -14 -14 -14 -14 -14 -14 -14 -14 -14 -14 -13 -13 -14 -14 -14 -14 -14 -14 -14 -14 -14 -14 -14 -14 -14 -14 -14 -14
-17 -17 -16 -16 -16 -16 -16 -16 -16 -16 -15 -15 -15 -15 -15 -15 -15 -15 -15 -15 -15 -15 -15 -15 -15 -15 -15 -15 -15 -15 -15 -14 -14 -14 -14 -14 -14 -14 -14 -14 -14 -14 -14 -14 -14 -14 -14 -14 -14 -14 -14 -14 -14 -14 -14 -14 -14 -14 -14 -14 -14 -14
-17 -17 -17 -17 -16 -16 -16 -16 -16 -16 -16 -16 -16 -16 -16 -15 -15 -15 -15 -15 -15 -15 -15 -15 -15 -15 -15 -15 -15 -15 -15 -15 -15 -15 -15 -15 -15 -15 -15 -14 -14 -14 -14 -14 -14 -14 -14 -14 -14 -14 -14 -14 -14 -14 -14 -14 -14 -14 -14 -14 -14 -14
-17 -17 -17 -17 -17 -17 -17 -16 -16 -16 -16 -16 -16 -16 -16 -16 -16 -16 -16 -16 -16 -16 -15 -15 -15 -15 -15 -15 -15 -15 -15 -15 -15 -15 -15 -15 -15 -15 -15 -15 -15 -15 -15 -14 -14 -14 -14 -14 -14 -14 -14 -14 -14 -14 -14 -14 -14 -14 -14 -14 -14 -14
-17 -17 -17 -17 -17 -17 -17 -17 -17 -16 -16 -16 -16 -16 -16 -16 -16 -16 -16 -16 -16 -16 -16 -16 -16 -16 -16 -16 -16 -16 -16 -15 -15 -15 -15 -15 -15 -15 -15 -15 -15 -15 -15 -15 -15 -15 -15 -15 -15 -14 -14 -14 -14 -14 -14 -14 -14 -14 -14 -14 -14 -14
-18 -17 -17 -17 -17 -17 -17 -17 -17 -17 -17 -17 -16 -16 -16 -16 -16 -16 -16 -16 -16 -16 -16 -16 -16 -16 -16 -16 -16 -16 -16 -16 -16 -16 -15 -15 -15 -15 -16 -16 -16 -15 -15 -15 -15 -15 -15 -15 -15 -15 -15 -15 -15 -15 -14 -14 -14 -14 -14 -14 -14 -14
-18 -18 -18 -17 -17 -17 -17 -17 -17 -17 -17 -17 -17 -17 -16 -16 -16 -16 -16 -16 -16 -16 -16 -16 -16 -16 -16 -16 -16 -16 -16 -16 -16 -16 -16 -16 -16 -16 -16 -16 -16 -16 -16 -16 -16 -16 -15 -15 -15 -15 -15 -15 -15 -15 -15 -15 -15 -15 -15 -14 -14 -14
Height
5822 5822 5822 5822 5820 5820 5820 5819 5820 5821 5821 5821 5820 5822 5823 5823 5823 5823 5823 5823 5823 5823 5823 5823 5822 5822 5821 5822 5822 5823 5824 5824 5825 5825 5826 5826 5827 5827 5827 5827 5828 5829 5829 5830 5831 5832 5833 5835 5836 5837 5838 5840 5841 5842 5842 5843 5844 5846 5847 5849 5850 5852
5820 5820 5820 5820 5818 5818 5818 5817 5818 5818 5819 5818 5819 5820 5821 5821 5821 5821 5822 5821 5821 5821 5821 5821 5820 5820 5819 5820 5820 5821 5821 5822 5823 5824 5824 5825 5825 5826 5826 5826 5826 5827 5828 5828 5829 5830 5831 5833 5834 5835 5837 5838 5839 5840 5841 5841 5842 5844 5845 5847 5848 5850
5817 5818 5818 5817 5817 5816 5816 5816 5816 5816 5816 5816 5817 5818 5818 5818 5818 5819 5819 5819 5819 5819 5819 5819 5818 5817 5817 5818 5818 5819 5820 5820 5821 5822 5822 5823 5824 5825 5825 5825 5825 5825 5826 5826 5827 5828 5829 5830 5832 5834 5835 5836 5837 5838 5839 5840 5841 5842 5843 5845 5846 5848
5815 5815 5815 5815 5815 5814 5813 5814 5814 5814 5814 5814 5815 5815 5815 5816 5816 5816 5817 5817 5817 5818 5818 5818 5816 5816 5816 5816 5817 5818 5818 5818 5819 5819 5820 5821 5822 5823 5824 5823 5823 5823 5823 5824 5825 5825 5827 5828 5830 5832 5833 5834 5835 5836 5837 5838 5839 5840 5841 5843 5844 5846
5811 5812 5812 5812 5812 5812 5811 5811 5811 5811 5812 5812 5812 5813 5813 5813 5813 5814 5815 5815 5815 5815 5816 5816 5815 5815 5815 5815 5816 5816 5816 5816 5817 5817 5818 5819 5820 5821 5822 5822 5822 5821 5822 5822 5823 5823 5825 5826 5827 5829 5831 5832 5833 5835 5836 5837 5837 5838 5840 5841 5843 5844
5808 5809 5809 5809 5809 5809 5809 5809 5809 5809 5809 5809 5810 5810 5810 5810 5811 5812 5813 5813 5813 5813 5813 5813 5813 5813 5814 5814 5814 5814 5814 5814 5815 5815 5815 5817 5818 5818 5819 5820 5820 5819 5820 5820 5821 5821 5822 5823 5825 5827 5829 5830 5831 5833 5834 5835 5836 5837 5838 5839 5841 5842
5806 5806 5806 5806 5806 5806 5806 5806 5806 5807 5807 5807 5808 5808 5808 5808 5809 5810 5810 5811 5810 5810 5810 5811 5811 5812 5812 5812 5812 5812 5813 5813 5813 5813 5814 5814 5815 5816 5817 5817 5818 5817 5817 5818 5818 5818 5820 5821 5822 5824 5826 5828 5829 5831 5832 5833 5834 5835 5836 5837 5839 5840
5803 5803 5804 5804 5804 5804 5804 5804 5804 5805 5805 5805 5806 5806 5807 5807 5807 5808 5808 5808 5807 5807 5808 5809 5810 5811 5811 5810 5811 5811 5812 5812 5812 5812 5812 5812 5813 5814 5815 5816 5816 5816 5815 5816 5816 5816 5817 5818 5820 5822 5824 5826 5827 5829 5830 5831 5832 5833 5834 5835 5837 5838
5801 5801 5801 5801 5801 5801 5802 5802 5802 5803 5803 5803 5804 5804 5805 5805 5805 5805 5805 5805 5805 5805 5806 5807 5808 5808 5808 5809 5809 5810 5810 5810 5810 5811 5811 5811 5811 5812 5813 5814 5814 5814 5814 5814 5814 5813 5814 5816 5818 5820 5822 5823 5825 5827 5828 5829 5830 5831 5832 5834 5834 5836
5799 5799 5799 5799 5799 5800 5800 5800 5801 5801 5801 5802 5802 5802 5803 5803 5803 5803 5803 5802 5802 5803 5803 5805 5806 5806 5806 5807 5808 5808 5809 5809 5809 5809 5809 5809 5809 5810 5811 5812 5812 5812 5812 5813 5813 5811 5812 5814 5816 5818 5819 5821 5823 5825 5826 5827 5828 5829 5830 5831 5832 5833
5797 5797 5797 5797 5797 5798 5798 5798 5799 5799 5800 5800 5801 5801 5801 5801 5802 5801 5801 5800 5800 5800 5801 5802 5803 5804 5805 5805 5806 5807 5808 5808 5807 5808 5808 5807 5807 5808 5808 5809 5810 5810 5810 5811 5811 5810 5809 5811 5813 5816 5817 5819 5821 5822 5824 5825 5826 5827 5828 5829 5830 5831
5795 5795 5795 5795 5795 5796 5796 5797 5797 5798 5798 5799 5799 5799 5799 5800 5800 5800 5800 5799 5798 5799 5799 5800 5801 5802 5803 5804 5805 5806 5806 5806 5806 5806 5807 5807 5806 5806 5806 5806 5807 5807 5808 5809 5809 5808 5808 5808 5810 5813 5815 5817 5818 5820 5821 5822 5823 5824 5826 5827 5828 5829
5793 5793 5793 5793 5793 5794 5794 5795 5795 5796 5796 5797 5797 5797 5797 5798 5798 5798 5798 5797 5797 5797 5797 5797 5798 5800 5801 5802 5803 5803 5803 5803 5803 5804 5805 5805 5804 5803 5804 5804 5805 5805 5806 5807 5808 5806 5806 5806 5807 5810 5812 5814 5815 5816 5818 5820 5821 5822 5823 5825 5826 5827
5791 5791 5791 5791 5791 5792 5792 5793 5793 5794 5794 5795 5795 5795 5795 5795 5796 5795 5796 5795 5795 5795 5795 5796 5796 5797 5798 5800 5800 5800 5801 5801 5801 5801 5802 5803 5802 5802 5802 5802 5803 5803 5804 5805 5806 5805 5805 5805 5806 5807 5809 5811 5813 5813 5815 5817 5818 5820 5821 5823 5824 5825
5788 5788 5789 5789 5789 5790 5790 5790 5791 5791 5792 5792 5792 5792 5793 5793 5793 5793 5793 5793 5793 5792 5793 5794 5794 5794 5796 5797 5797 5798 5798 5799 5799 5799 5799 5800 5800 5800 5800 5799 5800 5801 5801 5802 5803 5804 5803 5804 5805 5805 5806 5808 5810 5811 5813 5814 5816 5818 5819 5820 5821 5823
5786 5786 5787 5787 5787 5788 5788 5788 5788 5789 5790 5790 5790 5790 5790 5791 5791 5791 5791 5791 5791 5790 5790 5792 5792 5792 5793 5794 5795 5795 5796 5796 5796 5796 5796 5797 5798 5797 5797 5797 5797 5798 5798 5799 5800 5801 5802 5802 5803 5803 5804 5804 5806 5808 5810 5812 5813 5814 5816 5817 5819 5820
5784 5784 5785 5785 5785 5785 5786 5786 5786 5787 5787 5787 5787 5788 5788 5788 5788 5789 5789 5789 5789 5788 5788 5788 5789 5790 5791 5791 5792 5792 5793 5794 5794 5794 5794 5794 5795 5795 5795 5795 5795 5795 5796 5796 5797 5799 5799 5800 5800 5801 5802 5802 5803 5805 5807 5808 5810 5811 5812 5814 5816 5817
5782 5783 5783 5782 5783 5783 5783 5784 5784 5784 5785 5785 5785 5785 5785 5785 5786 5786 5786 5786 5786 5786 5785 5786 5786 5787 5788 5788 5789 5790 5791 5791 5791 5792 5792 5792 5792 5792 5792 5792 5793 5793 5793 5794 5794 5796 5797 5797 5798 5799 5799 5800 5801 5802 5803 5805 5806 5808 5809 5811 5813 5814
5780 5780 5780 5780 5780 5780 5781 5781 5781 5781 5782 5782 5782 5782 5782 5782 5782 5783 5783 5783 5784 5783 5783 5783 5784 5784 5785 5786 5786 5787 5788 5788 5788 5789 5789 5789 5789 5789 5790 5790 5790 5790 5791 5791 5792 5793 5793 5794 5795 5796 5796 5797 5798 5799 5800 5801 5803 5805 5807 5808 5810 5812
5778 5778 5778 5778 5778 5778 5778 5778 5778 5778 5779 5779 5779 5779 5779 5779 5779 5779 5780 5780 5781 5781 5781 5780 5780 5781 5782 5783 5783 5784 5785 5785 5785 5786 5786 5786 5787 5787 5787 5788 5788 5788 5789 5789 5789 5790 5790 5791 5792 5793 5794 5795 5795 5796 5797 5798 5800 5802 5803 5805 5806 5808
5775 5775 5775 5775 5775 5775 5775 5775 5775 5776 5776 5776 5776 5775 5775 5776 5776 5776 5776 5777 5777 5778 5778 5777 5777 5778 5779 5780 5780 5781 5782 5782 5782 5783 5783 5784 5784 5784 5784 5785 5785 5786 5787 5787 5786 5787 5787 5788 5789 5790 5791 5792 5793 5793 5793 5795 5797 5798 5799 5801 5803 5805
5773 5772 5773 5772 5772 5772 5772 5773 5773 5772 5773 5773 5772 5772 5772 5772 5773 5773 5773 5773 5774 5774 5774 5774 5775 5775 5775 5776 5777 5778 5779 5779 5780 5780 5780 5781 5781 5781 5781 5782 5783 5783 5783 5784 5783 5784 5785 5785 5786 5787 5788 5789 5789 5789 5790 5792 5793 5794 5795 5797 5799 5801
5770 5770 5770 5770 5769 5769 5769 5770 5769 5769 5770 5769 5769 5769 5769 5769 5769 5770 5770 5770 5771 5771 5771 5771 5771 5772 5772 5772 5774 5775 5775 5776 5777 5777 5777 5778 5778 5778 5779 5779 5780 5780 5780 5781 5781 5782 5782 5783 5783 5784 5785 5785 5786 5786 5786 5788 5789 5790 5791 5793 5795 5796
5767 5767 5767 5767 5767 5767 5767 5767 5766 5766 5766 5766 5766 5766 5766 5766 5767 5767 5767 5767 5768 5768 5768 5768 5768 5769 5769 5769 5770 5771 5772 5773 5774 5774 5774 5774 5775 5775 5776 5776 5777 5777 5778 5778 5778 5779 5779 5780 5781 5782 5782 5782 5783 5783 5783 5783 5784 5785 5787 5789 5791 5792
5764 5763 5764 5764 5764 5764 5764 5764 5764 5764 5763 5763 5763 5763 5763 5763 5764 5764 5764 5765 5765 5765 5765 5765 5766 5766 5766 5766 5767 5768 5769 5770 5771 5771 5771 5771 5771 5772 5772 5773 5774 5774 5775 5776 5776 5776 5776 5777 5778 5779 5780 5780 5780 5780 5780 5780 5781 5782 5783 5785 5786 5789
5761 5760 5760 5760 5761 5761 5761 5761 5761 5761 5760 5760 5760 5760 5760 5760 5761 5761 5761 5762 5762 5762 5763 5763 5763 5763 5763 5764 5764 5765 5766 5767 5767 5768 5768 5768 5768 5769 5769 5770 5770 5771 5772 5773 5773 5773 5773 5774 5775 5777 5777 5778 5778 5778 5778 5778 5778 5779 5780 5780 5783 5786
5757 5757 5757 5757 5757 5757 5758 5758 5758 5758 5758 5758 5757 5757 5757 5757 5758 5758 5758 5759 5759 5760 5760 5760 5760 5760 5761 5761 5761 5762 5762 5763 5764 5765 5765 5765 5766 5766 5766 5766 5767 5768 5769 5769 5769 5770 5771 5771 5772 5774 5774 5775 5776 5776 5776 5776 5776 5777 5777 5777 5779 5782
5753 5753 5754 5754 5754 5754 5755 5755 5755 5755 5755 5755 5755 5755 5755 5755 5755 5755 5755 5756 5756 5757 5757 5757 5758 5758 5758 5758 5759 5759 5760 5760 5761 5761 5762 5762 5763 5763 5763 5763 5764 5765 5765 5766 5766 5767 5767 5768 5769 5770 5770 5771 5773 5773 5773 5774 5774 5775 5775 5775 5776 5777
5750 5750 5750 5751 5751 5751 5752 5752 5752 5752 5752 5753 5753 5753 5752 5752 5753 5753 5753 5753 5753 5754 5754 5754 5755 5755 5755 5756 5756 5756 5757 5757 5758 5758 5759 5759 5760 5760 5760 5760 5761 5761 5762 5762 5763 5763 5764 5765 5766 5766 5767 5768 5769 5770 5770 5771 5771 5772 5773 5773 5774 5774
5747 5747 5748 5748 5748 5749 5749 5749 5749 5749 5750 5750 5750 5750 5750 5750 5750 5750 5750 5750 5751 5751 5751 5751 5752 5752 5753 5753 5753 5754 5754 5754 5755 5755 5756 5756 5756 5757 5757 5757 5758 5758 5759 5759 5760 5760 5761 5761 5762 5763 5763 5764 5765 5766 5767 5768 5768 5768 5769 5770 5771 5772
5744 5745 5745 5745 5746 5746 5747 5747 5747 5747 5747 5747 5747 5747 5747 5747 5747 5748 5748 5748 5748 5748 5748 5749 5749 5749 5750 5750 5751 5751 5752 5752 5752 5752 5753 5753 5753 5754 5754 5754 5755 5755 5756 5756 5757 5757 5758 5758 5759 5759 5760 5761 5761 5762 5763 5764 5765 5766 5766 5767 5768 5769
5742 5742 5742 5743 5743 5744 5744 5744 5744 5744 5745 5745 5745 5745 5745 5745 5745 5745 5745 5745 5746 5746 5746 5746 5746 5747 5747 5748 5748 5749 5749 5749 5749 5750 5750 5750 5751 5751 5751 5752 5752 5752 5753 5753 5754 5754 5755 5755 5756 5756 5757 5758 5758 5759 5760 5761 5762 5763 5763 5764 5765 5766
5739 5740 5740 5741 5741 5741 5742 5742 5742 5742 5742 5742 5742 5743 5743 5743 5742 5743 5743 5743 5743 5743 5743 5743 5744 5744 5744 5745 5745 5746 5747 5747 5747 5747 5748 5748 5748 5749 5749 5750 5750 5750 5750 5751 5751 5752 5752 5752 5753 5754 5754 5755 5756 5756 5757 5758 5759 5760 5760 5761 5762 5763
5737 5737 5738 5738 5738 5739 5739 5739 5740 5740 5740 5740 5740 5740 5740 5740 5740 5740 5740 5740 5741 5741 5741 5741 5741 5741 5742 5742 5743 5743 5744 5744 5745 5745 5745 5746 5746 5746 5747 5747 5748 5748 5748 5748 5749 5749 5750 5750 5750 5751 5752 5752 5753 5754 5754 5755 5756 5757 5758 5758 5759 5760
5733 5734 5734 5735 5735 5735 5736 5736 5737 5737 5737 5738 5738 5738 5738 5738 5738 5738 5738 5738 5738 5738 5738 5738 5739 5739 5739 5740 5740 5740 5741 5742 5742 5743 5743 5744 5744 5744 5745 5745 5745 5746 5746 5746 5746 5747 5747 5748 5748 5749 5749 5750 5751 5751 5752 5753 5753 5754 5755 5756 5757 5757
5730 5731 5731 5731 5731 5732 5732 5733 5733 5734 5734 5734 5735 5735 5735 5735 5736 5736 5736 5736 5736 5736 5736 5736 5736 5737 5737 5737 5738 5738 5738 5739 5739 5740 5741 5741 5742 5742 5742 5743 5743 5743 5744 5744 5745 5745 5745 5745 5746 5746 5747 5747 5748 5749 5749 5750 5751 5751 5752 5753 5754 5755
5727 5727 5728 5728 5728 5728 5729 5729 5730 5730 5731 5731 5731 5732 5732 5733 5733 5733 5733 5734 5734 5734 5734 5734 5734 5734 5735 5735 5736 5736 5736 5736 5737 5737 5738 5738 5739 5740 5740 5740 5740 5741 5741 5742 5742 5743 5743 5743 5744 5744 5745 5745 5746 5746 5747 5747 5748 5749 5750 5750 5751 5752
Wind_Speed
24 24 24 24 24 23 22 21 20 19 19 19 19 18 17 17 17 17 18 17 17 17 17 17 17 17 16 17 16 14 12 12 12 13 14 15 16 17 18 19 19 21 22 23 22 21 22 24 25 25 23 20 18 17 17 18 21 23 24 24 24 23
24 23 22 23 23 22 21 21 20 20 19 19 19 18 18 17 17 17 17 17 16 17 16 15 16 16 16 16 15 14 13 13 14 13 14 15 15 16 18 20 20 21 22 24 23 22 22 24 26 26 24 21 19 18 18 18 20 23 24 25 25 24
25 23 22 22 22 22 21 21 21 20 20 20 19 19 18 17 17 16 16 16 15 15 15 15 16 15 16 15 15 14 13 14 15 16 15 15 15 16 18 20 21 21 21 23 24 23 23 24 26 27 26 23 21 20 18 18 19 22 24 25 25 25
27 25 23 21 21 22 21 21 21 21 20 21 20 19 19 18 17 16 16 16 15 15 15 15 16 15 16 16 14 14 13 14 16 17 18 17 16 16 18 21 22 21 21 22 24 24 24 24 27 28 28 26 23 21 19 18 19 22 24 25 26 26
28 26 23 22 21 22 22 22 22 21 21 21 20 20 19 18 17 16 16 16 15 15 15 15 15 15 16 15 14 13 14 15 17 18 19 18 17 17 18 21 23 23 22 22 24 26 26 25 27 29 30 27 24 22 20 19 19 20 23 25 26 26
27 26 24 22 22 22 23 23 22 22 22 22 21 20 19 19 17 16 16 16 16 15 15 15 15 14 14 14 14 14 14 16 17 18 19 19 19 19 19 20 24 25 24 23 25 28 28 26 27 30 31 29 26 23 21 20 19 19 22 24 25 26
26 25 23 22 22 23 23 23 23 22 22 22 22 21 20 19 18 17 17 16 16 16 15 15 15 15 14 15 15 15 15 15 16 18 19 20 20 20 20 20 23 26 26 25 26 28 30 28 28 31 32 31 28 25 23 21 20 19 21 23 24 25
24 23 22 22 23 24 24 24 23 22 22 23 22 21 20 19 18 18 17 17 18 17 17 16 16 16 16 17 17 16 15 15 16 17 18 20 21 21 20 20 21 25 27 26 25 25 28 28 27 31 33 32 30 27 24 22 21 20 20 22 23 25
22 21 22 22 24 25 24 24 23 23 23 23 22 21 20 19 19 18 19 20 19 18 18 18 18 19 19 19 18 17 16 16 16 17 18 19 21 21 21 20 21 24 26 26 24 24 24 24 26 31 34 33 32 29 26 23 22 20 20 21 22 24
20 20 21 22 24 25 25 24 23 23 23 23 22 21 20 20 20 20 20 21 20 20 20 21 20 21 21 20 19 19 18 17 17 17 17 18 19 20 20 21 21 23 25 25 24 25 24 23 25 31 34 35 33 30 28 26 23 22 21 21 22 23
19 19 20 21 23 24 25 24 24 24 24 23 22 22 22 21 21 21 21 22 22 22 23 23 22 22 22 21 20 20 19 18 18 17 17 18 17 17 18 20 22 23 25 25 25 26 27 25 25 30 34 35 34 33 30 28 26 24 22 22 22 23
18 18 18 20 21 23 24 24 24 24 24 23 23 23 22 22 22 22 22 23 24 23 25 25 24 24 23 22 21 20 19 19 18 17 17 18 17 17 17 19 21 22 24 24 25 27 28 27 27 29 34 36 36 35 33 31 29 27 25 23 23 23
20 19 19 20 21 22 23 24 25 25 24 24 23 23 23 22 22 23 23 24 25 25 27 27 26 25 24 23 22 21 20 19 18 18 17 17 18 18 18 18 19 21 22 22 24 26 27 28 29 30 33 36 38 37 35 33 31 29 28 26 24 23
21 21 21 21 22 23 24 25 25 25 25 24 24 24 23 23 23 24 24 25 26 27 28 27 26 25 24 24 23 23 22 21 20 20 19 18 18 18 18 18 19 20 21 21 22 24 25 26 29 32 34 35 38 39 36 35 33 31 29 28 26 25
22 22 23 22 23 23 24 25 26 26 25 25 24 24 24 24 24 25 24 25 26 27 28 26 26 26 24 23 23 23 22 21 21 21 20 19 19 19 19 20 20 20 21 21 22 23 25 26 28 33 35 35 37 40 38 36 35 33 32 30 29 27
24 23 23 23 24 24 25 25 26 26 25 25 25 25 25 24 25 25 25 25 26 27 28 27 27 26 25 24 23 23 22 21 21 21 21 21 20 21 21 20 20 20 20 21 22 22 25 26 27 30 34 36 37 39 39 38 36 36 35 33 31 29
24 24 24 23 24 24 25 25 26 26 26 26 26 26 26 26 26 26 26 26 27 28 28 28 27 25 25 24 24 23 22 22 22 22 21 22 22 22 21 20 21 21 20 20 21 21 23 25 26 28 30 34 37 38 39 39 39 38 37 35 33 32
24 24 25 25 24 24 25 26 26 27 27 27 27 27 27 27 28 28 27 27 27 28 29 28 27 26 25 24 24 24 23 24 24 23 22 22 23 23 21 21 22 22 21 21 20 20 22 24 25 27 28 31 34 36 38 39 40 40 38 37 35 34
23 24 26 27 27 26 26 27 27 28 28 28 29 29 29 30 30 30 29 28 28 29 29 29 28 27 26 25 25 25 24 25 25 24 23 23 24 24 23 22 23 23 22 21 21 20 20 22 24 27 28 30 31 33 35 36 38 40 39 38 37 35
23 23 25 27 28 29 29 29 29 30 30 30 30 31 31 31 31 31 31 30 29 29 29 29 29 28 27 26 25 25 25 25 25 25 24 24 24 25 24 23 24 25 23 23 22 21 20 21 23 26 27 29 31 33 34 35 36 37 39 40 39 38
24 24 23 24 26 28 29 29 30 31 31 32 32 32 32 32 32 31 31 30 30 29 29 30 30 29 28 27 26 26 26 25 25 25 24 24 25 26 26 25 24 25 25 24 24 23 22 21 23 25 27 28 31 34 35 36 37 37 38 40 40 40
25 25 24 23 24 25 26 27 29 30 30 31 32 32 32 32 31 31 31 30 30 30 30 30 30 29 29 28 26 26 25 25 24 24 24 24 24 25 26 26 26 26 26 26 26 25 24 24 23 24 26 27 30 34 35 35 38 39 39 39 40 41
25 25 24 24 25 25 25 26 27 28 28 29 30 30 30 30 30 30 30 30 30 30 30 30 29 29 29 28 26 25 25 24 24 24 24 24 24 25 26 26 26 27 28 28 27 26 26 26 25 23 24 24 25 30 34 35 37 40 41 40 41 42
25 24 25 25 25 25 25 25 26 26 26 27 27 28 28 28 29 29 29 29 29 29 29 29 28 28 28 27 27 25 25 24 23 23 24 24 25 25 26 26 26 27 29 30 30 28 27 27 26 23 22 22 20 22 28 34 38 40 42 42 42 43
24 24 25 24 24 24 24 24 24 25 25 25 26 26 27 27 27 27 28 28 27 28 28 28 28 27 27 27 27 26 25 24 23 23 24 24 25 25 26 27 26 26 27 29 30 30 30 28 26 24 22 21 19 18 21 27 32 35 39 44 45 43
24 24 24 23 23 23 24 23 23 23 24 24 24 25 25 25 25 25 25 26 26 26 27 27 27 26 26 26 26 26 25 24 23 23 23 24 25 25 26 26 26 25 26 28 30 31 32 31 29 27 25 23 22 20 19 20 25 28 31 38 41 41
24 23 23 22 22 22 23 23 22 23 23 23 23 23 23 23 23 23 23 23 24 24 25 26 26 26 25 25 26 25 24 23 23 23 23 23 24 24 25 25 25 25 26 28 30 31 33 33 32 29 28 27 24 22 20 19 22 25 27 30 31 36
25 24 22 22 21 21 21 22 22 22 22 22 22 22 22 22 22 22 22 22 22 22 23 24 24 24 24 24 25 25 24 23 22 22 22 22 23 23 24 25 25 24 25 26 28 30 31 32 32 31 30 29 27 26 24 22 21 22 24 27 28 32
25 24 22 21 21 20 20 20 21 21 21 21 21 21 21 21 21 21 21 21 21 21 21 22 22 23 23 23 23 23 23 22 22 22 22 22 22 23 23 24 24 24 24 25 27 28 29 29 30 31 31 30 30 30 29 27 25 22 21 24 27 30
23 22 21 21 21 20 20 20 19 19 20 20 20 20 20 21 21 21 21 21 21 21 21 21 21 21 22 22 22 22 21 21 21 21 21 22 22 22 22 22 23 23 23 24 26 26 27 27 28 29 30 30 31 31 31 29 28 27 24 23 24 26
21 21 21 22 21 20 20 19 19 19 19 19 19 19 20 20 20 20 20 20 20 21 21 20 20 20 21 21 21 21 20 20 19 20 20 21 21 22 21 22 22 22 23 23 24 25 25 26 26 27 28 29 29 30 31 30 29 29 28 26 25 24
21 21 22 22 22 21 20 20 19 19 19 19 19 19 19 20 20 20 19 19 19 20 20 20 20 20 20 20 20 20 20 19 19 19 20 20 20 20 20 21 21 21 22 22 23 24 24 24 24 25 25 26 27 28 28 29 29 29 29 28 28 27
21 22 23 23 22 22 21 20 19 19 19 19 19 19 18 18 19 19 19 18 18 19 19 19 19 19 19 19 19 19 19 19 19 19 19 19 20 20 20 19 19 20 20 21 22 22 22 23 23 23 24 24 25 25 26 26 27 28 28 28 28 28
22 23 24 24 23 22 21 20 19 19 19 19 19 19 19 18 18 19 18 18 18 18 18 18 18 18 18 18 18 18 18 18 18 18 19 19 19 19 19 19 18 19 19 20 21 21 21 21 22 22 22 23 23 23 23 24 25 25 26 26 27 27
24 24 24 24 24 24 23 21 20 20 20 20 20 20 20 20 19 19 19 19 18 18 18 17 17 17 17 17 17 17 17 17 18 18 18 19 19 19 19 19 19 18 19 20 20 21 20 20 21 21 21 21 21 22 22 22 23 23 24 24 24 25
25 25 25 25 26 26 25 24 23 22 22 21 21 20 20 20 20 19 19 19 19 19 19 18 18 17 16 16 16 16 17 17 17 17 17 17 18 18 18 19 19 19 19 19 20 20 21 20 20 21 21 21 21 21 21 21 22 22 22 22 22 22
26 25 25 27 27 27 27 26 25 24 23 23 22 21 20 20 19 19 18 17 18 18 19 19 19 18 17 16 16 16 16 16 16 16 16 16 17 17 18 18 18 18 18 19 19 20 20 20 20 20 20 20 20 20 20 21 21 22 22 22 22 22
Wind_Direction
274 272 270 268 268 268 267 267 265 264 261 259 260 261 256 253 252 252 253 255 255 257 257 257 260 262 259 256 257 251 236 226 221 222 224 228 231 233 236 235 231 229 233 234 229 227 225 218 216 213 212 214 215 214 213 215 217 215 214 214 214 214
275 274 271 267 266 265 263 263 263 261 260 257 258 258 256 254 251 250 251 252 253 257 260 259 260 260 258 254 253 250 241 231 226 225 225 226 229 231 234 236 235 233 234 238 233 225 225 219 216 215 213 213 215 215 213 214 217 216 214 214 215 214
275 274 269 266 263 261 259 258 258 258 256 255 255 255 256 256 255 254 252 250 249 254 259 261 262 260 259 257 252 250 245 238 234 231 231 230 230 229 231 233 236 237 235 239 238 226 223 220 214 215 214 213 215 215 213 213 217 217 215 214 215 215
274 272 267 263 259 256 255 253 253 252 250 251 252 252 253 254 255 257 257 255 249 249 253 255 258 257 257 259 253 249 246 242 239 237 236 237 236 231 228 230 233 237 235 236 239 229 222 221 215 213 215 215 216 215 213 211 215 218 216 214 215 216
271 269 265 259 255 252 251 249 248 248 247 247 248 250 251 251 252 253 255 257 253 251 252 252 254 254 255 258 256 252 248 244 241 240 240 240 239 235 229 227 229 235 237 235 237 232 223 220 215 212 214 216 216 216 214 211 212 217 217 216 216 217
268 266 262 258 254 248 246 244 242 243 244 245 246 248 250 253 252 250 250 252 254 254 254 255 256 256 257 260 259 255 251 246 243 242 241 241 240 237 233 227 227 232 237 237 238 237 227 220 215 211 212 215 216 217 216 213 212 214 217 217 218 219
266 264 259 255 251 245 242 240 238 238 240 243 244 245 247 251 251 250 250 251 254 255 255 256 257 258 259 258 257 254 252 250 248 245 243 242 241 239 237 231 227 230 235 238 240 239 228 219 216 212 211 214 215 217 217 215 214 214 217 218 218 220
266 262 258 253 248 244 240 238 236 237 239 241 243 243 243 245 247 248 250 251 253 254 255 255 255 258 257 256 256 255 256 255 253 250 247 245 244 242 241 237 232 231 235 240 243 239 226 217 217 213 211 213 214 216 217 217 217 217 219 219 219 220
265 260 255 251 246 243 240 238 236 237 239 240 242 243 243 244 246 247 248 251 251 251 253 254 255 256 256 256 258 259 260 259 257 255 253 251 250 247 244 242 237 234 235 240 244 240 228 221 221 216 212 213 214 216 217 218 218 219 222 222 222 221
267 260 254 250 246 242 240 238 236 236 238 239 241 243 244 245 247 248 250 255 256 253 253 253 254 256 257 259 261 263 264 264 263 262 260 256 253 252 248 243 241 238 236 238 241 238 230 227 227 221 215 214 215 216 217 218 218 220 223 225 225 223
266 260 253 248 243 241 239 237 237 237 237 238 240 243 244 246 249 252 255 259 259 258 258 257 256 257 258 260 263 267 268 268 267 265 263 261 259 256 251 245 240 238 236 236 239 240 231 225 227 225 220 218 217 216 217 218 218 219 223 225 226 226
263 257 251 246 241 239 237 237 237 237 237 238 240 243 246 247 250 254 257 259 259 260 262 262 261 260 260 263 266 268 268 268 268 267 266 267 269 262 255 250 241 237 236 234 236 240 234 224 223 225 224 222 219 218 218 219 219 219 221 223 225 227
258 255 250 245 241 238 236 236 237 237 238 239 241 245 248 250 251 254 256 258 260 261 262 265 267 266 264 265 266 266 267 268 270 271 270 267 268 264 260 259 250 242 241 237 234 237 236 229 223 222 223 224 223 221 220 220 220 220 221 222 224 226
256 254 250 247 243 239 237 236 236 237 238 240 243 246 248 251 253 254 255 257 260 262 264 267 270 269 266 265 266 266 267 269 271 272 271 268 267 267 266 264 259 251 247 243 238 237 240 238 231 225 222 223 226 226 223 222 221 221 222 223 223 225
258 255 251 249 246 243 239 237 236 237 238 241 244 247 250 251 253 256 256 257 259 262 265 266 267 269 268 267 267 267 267 268 270 270 270 271 270 268 265 263 260 257 252 248 244 241 241 241 240 234 225 221 225 228 228 226 224 223 224 224 224 225
260 258 254 251 248 246 243 240 239 239 241 244 247 249 251 253 254 256 258 259 260 262 264 264 264 267 269 268 266 265 266 266 266 267 268 268 267 266 264 262 260 258 255 252 248 245 244 243 244 243 233 223 223 227 230 231 229 226 225 225 225 225
259 260 258 255 251 248 245 243 242 242 244 247 249 251 253 255 256 257 257 258 259 261 263 264 265 266 267 267 266 265 264 263 262 263 265 265 264 263 263 262 260 259 256 254 251 248 247 245 244 247 243 232 226 226 229 232 233 231 228 227 227 227
257 257 258 258 256 252 249 246 245 246 247 249 251 253 255 257 258 259 258 258 258 259 261 264 266 267 267 266 266 265 264 263 262 262 263 263 262 261 259 259 259 258 256 254 253 251 247 244 241 242 245 242 235 229 228 230 233 234 233 231 229 229
257 253 254 256 257 256 254 251 250 250 250 251 253 255 256 257 258 259 259 259 258 259 261 262 264 266 266 266 265 264 264 263 264 264 263 262 261 260 257 256 256 256 255 254 254 254 250 244 241 239 241 243 243 239 233 230 231 234 235 235 233 232
261 255 251 252 254 255 255 254 254 253 254 255 255 256 257 257 258 258 259 259 258 259 260 262 263 265 266 266 265 264 264 264 265 265 264 262 260 259 257 254 255 255 254 254 254 254 253 248 243 241 240 240 242 244 243 237 233 233 235 235 234 234
266 261 257 255 254 254 254 254 254 254 255 256 256 257 258 258 258 258 259 259 258 258 259 261 263 265 266 266 266 265 265 265 265 265 264 262 260 259 257 254 254 255 254 253 253 253 254 253 247 243 242 240 238 240 243 243 238 234 234 235 234 234
266 265 264 262 261 258 257 255 254 254 254 255 255 256 257 258 259 259 259 259 259 259 259 261 263 264 266 267 266 266 265 264 264 264 263 262 260 259 258 256 254 254 253 252 253 254 254 255 253 248 245 245 241 236 236 239 241 238 236 235 235 235
266 266 266 265 265 264 262 259 257 256 255 256 256 256 257 258 259 259 259 259 260 260 261 262 263 264 266 267 267 266 265 264 262 262 262 261 260 259 259 257 254 253 254 253 253 254 254 255 256 255 251 249 243 237 233 232 236 239 238 236 235 235
269 267 266 265 266 266 264 263 261 260 259 258 258 258 258 258 258 259 259 259 259 260 262 263 264 265 266 266 267 266 264 263 261 260 260 259 258 257 257 256 254 253 253 254 254 254 253 252 254 257 256 250 240 236 236 233 232 234 237 238 238 238
273 270 267 266 266 266 265 264 263 262 261 260 259 258 257 257 258 258 259 260 261 262 264 265 266 266 266 267 267 266 265 263 260 259 258 258 257 256 255 256 254 252 252 252 253 253 253 253 255 258 260 257 247 240 241 239 236 235 236 237 238 241
277 272 269 268 267 266 265 265 263 261 260 259 258 257 256 256 257 258 261 263 264 265 266 267 268 268 268 268 268 267 266 263 260 258 257 257 257 256 255 255 254 252 251 251 251 250 253 256 259 259 261 264 261 252 245 239 238 240 240 238 234 237
280 274 270 269 269 267 266 264 261 258 257 256 256 257 257 258 259 260 263 265 266 267 267 268 269 270 269 268 268 268 266 264 262 259 257 256 257 257 256 256 255 252 250 251 251 250 252 255 259 260 259 261 263 258 250 238 233 237 244 243 232 230
281 276 274 273 272 270 267 264 260 257 255 254 255 257 259 261 262 263 265 266 266 267 267 268 269 270 270 269 268 267 265 264 262 260 258 257 256 256 256 256 256 254 252 251 252 251 251 253 256 257 257 257 257 256 255 248 236 233 238 240 234 231
278 277 276 276 275 273 269 266 263 259 257 255 255 257 259 261 262 263 264 265 265 266 267 268 269 270 270 269 268 266 264 262 260 259 258 257 257 256 255 256 256 255 253 252 254 254 253 253 253 254 255 255 254 255 258 257 251 245 239 236 234 235
274 276 277 277 276 273 271 269 266 262 259 258 258 258 259 261 262 262 263 263 264 265 266 267 269 270 270 269 267 265 263 261 259 258 258 257 257 256 255 254 255 254 252 251 252 253 253 253 253 253 253 254 254 254 256 257 257 257 253 246 241 237
274 277 278 277 276 273 271 269 266 264 262 260 259 260 261 262 263 263 262 263 263 263 264 266 267 269 269 269 268 265 261 259 258 257 257 257 257 257 256 254 254 254 253 251 251 252 253 253 253 253 253 253 254 254 254 255 256 258 258 256 254 249
276 278 279 278 276 273 271 268 266 265 263 262 261 261 262 263 264 264 264 264 263 262 262 263 264 266 267 268 267 265 262 259 257 257 257 258 258 258 257 256 255 254 253 252 251 252 252 253 253 252 253 254 254 254 255 255 255 257 258 258 258 258
275 277 279 279 277 274 271 268 265 264 263 262 262 262 262 263 263 264 265 265 264 263 261 261 262 263 265 266 265 264 262 259 256 256 257 259 260 260 260 259 257 255 255 254 253 253 252 253 253 252 251 252 253 253 253 254 255 256 257 257 257 258
273 274 275 276 277 275 272 268 264 262 262 262 263 263 263 263 263 264 265 266 266 265 264 262 262 264 265 266 266 265 263 260 257 254 255 257 259 260 261 261 260 257 256 255 255 255 253 251 252 252 250 250 251 252 252 252 254 255 256 256 257 257
271 273 273 275 276 274 272 270 267 265 264 263 263 263 263 263 263 263 264 266 267 267 268 266 265 266 267 268 269 268 266 263 260 256 253 253 255 256 258 258 258 256 255 255 256 256 255 253 251 251 250 249 250 250 251 251 251 253 254 255 255 255
270 272 273 274 275 274 273 272 272 270 268 266 264 262 262 261 261 262 263 264 266 267 268 268 268 267 268 270 272 272 271 269 265 261 257 254 253 253 254 255 254 253 252 252 253 255 257 256 254 254 253 252 250 249 250 250 250 250 252 253 253 254
265 268 269 270 271 273 274 274 273 271 269 267 266 264 262 261 260 261 261 262 264 266 267 268 268 268 267 268 270 271 272 272 270 267 264 261 258 255 254 253 253 253 251 250 249 251 253 256 256 256 256 256 256 254 253 253 253 252 252 253 253 253